Weather History for Deer Park, WA

Change the Weather History Date:

Saturday, January 12, 2013

  Actual Average Record
Temperature  
Mean Temperature 10 °F 27 °F  
Max Temperature 20 °F 33 °F 40 °F (2014)
Min Temperature -1 °F 21 °F -9 °F (2007)
Degree Days  
Heating Degree Days 55 38  
Month to date heating degree days 503 468  
Since 1 July heating degree days 3296 3695  
Cooling Degree Days 0 0  
Month to date cooling degree days 0 0  
Year to date cooling degree days 0 0  
Moisture  
Dew Point 11 °F    
Average Humidity 92    
Maximum Humidity 100    
Minimum Humidity 84    
Precipitation  
Precipitation 0.00 in 0.09 in 0.41 in (2011)
Month to date precipitation 1.11 1.22  
Year to date precipitation 1.11 1.22  
Sea Level Pressure  
Sea Level Pressure 30.29 in    
Wind  
Wind Speed 2 mph (NW)    
Max Wind Speed 9 mph    
Max Gust Speed 12 mph    
Visibility 7 miles    
Events Fog    
T = Trace of Precipitation, MM = Missing Value Source: NWS Daily Summary

Daily Weather History Graph

Daily Weather History Graph

Search for Another Location

Airport:

Trip Planner

Search our weather history database for the weather conditions in past years. The results will help you decide how hot, cold, wet, or windy it might be!

Date:

Astronomy

Jan. 12, 2013 Rise Set
Actual Time 7:36 AM PST 4:20 PM PST
Civil Twilight 7:00 AM PST 4:55 PM PST
Nautical Twilight 6:22 AM PST 5:34 PM PST
Astronomical Twilight 5:44 AM PST 6:11 PM PST
Moon 7:50 AM PST (1/12) 6:04 PM PST (1/12)
Length of Visible Light 9h 55m
Length of Day
8h 44m
New Moon, 2% of the Moon is Illuminated
Jan 12
New Moon
Jan 18
First Quarter
Jan 26
Full
Feb 3
Last Quarter
Feb 9
New

Hourly Weather History & Observations

Time (PST) Temp. Windchill Dew Point Humidity Pressure Visibility Wind Dir Wind Speed Gust Speed Precip Events Conditions
12:22 AM 10.4 °F -1.5 °F 8.6 °F 92% 30.19 in 8.0 mi SSE 8.1 mph - N/A   Scattered Clouds
12:31 AM 12.2 °F 1.7 °F 10.4 °F 92% 30.19 in 7.0 mi SSE 6.9 mph - N/A   Mostly Cloudy
12:53 AM 12.0 °F 2.7 °F 10.0 °F 92% 30.30 in 3.0 mi South 5.8 mph - N/A   Overcast
1:46 AM 12.2 °F - 10.4 °F 92% 30.20 in 1.8 mi Calm Calm - N/A   Overcast
1:53 AM 12.0 °F - 10.9 °F 95% 30.30 in 0.8 mi Calm Calm - N/A   Mist
2:53 AM 12.9 °F - 12.0 °F 96% 30.30 in 0.2 mi Calm Calm - N/A Fog Light Freezing Fog
3:46 AM 12.2 °F - 10.4 °F 92% 30.19 in 1.2 mi Calm Calm - N/A   Overcast
4:05 AM 12.2 °F - 12.2 °F 100% 30.18 in 0.8 mi Calm Calm - N/A   Mist
4:21 AM 14.0 °F 8.2 °F 12.2 °F 93% 30.18 in 1.0 mi NW 3.5 mph - N/A   Mist
4:29 AM 14.0 °F 6.5 °F 12.2 °F 93% 30.18 in 0.8 mi NW 4.6 mph - N/A   Mist
4:48 AM 14.0 °F - 12.2 °F 93% 30.19 in 1.0 mi Calm Calm - N/A   Mist
4:53 AM 15.1 °F - 12.9 °F 91% 30.30 in 0.8 mi Calm Calm - N/A   Mist
5:10 AM 15.8 °F - 12.2 °F 86% 30.19 in 1.0 mi Calm Calm - N/A   Mist
5:25 AM 15.8 °F 8.6 °F 14.0 °F 93% 30.19 in 3.0 mi NW 4.6 mph - N/A   Overcast
5:42 AM 15.8 °F 8.6 °F 14.0 °F 93% 30.19 in 5.0 mi NNW 4.6 mph - N/A   Overcast
5:53 AM 16.0 °F 10.4 °F 14.0 °F 92% 30.32 in 7.0 mi NNW 3.5 mph - N/A   Overcast
6:23 AM 15.8 °F 8.6 °F 14.0 °F 93% 30.20 in 8.0 mi NW 4.6 mph - N/A   Overcast
6:53 AM 16.0 °F 10.4 °F 14.0 °F 92% 30.32 in 10.0 mi NNW 3.5 mph - N/A   Overcast
7:37 AM 15.8 °F 8.6 °F 14.0 °F 93% 30.21 in 10.0 mi NW 4.6 mph - N/A   Overcast
7:53 AM 16.0 °F 10.4 °F 12.9 °F 88% 30.33 in 10.0 mi NW 3.5 mph - N/A   Overcast
8:53 AM 16.0 °F - 15.1 °F 96% 30.34 in 10.0 mi Calm Calm - N/A   Overcast
9:53 AM 16.0 °F 10.4 °F 14.0 °F 92% 30.35 in 10.0 mi NNW 3.5 mph - N/A   Overcast
10:53 AM 17.1 °F 11.7 °F 16.0 °F 96% 30.36 in 10.0 mi NNE 3.5 mph - N/A   Overcast
11:53 AM 18.0 °F 11.1 °F 16.0 °F 92% 30.36 in 10.0 mi NE 4.6 mph - N/A   Overcast
12:15 PM 19.4 °F - 19.4 °F 100% 30.23 in 10.0 mi Calm Calm - N/A   Overcast
12:53 PM 19.0 °F - 16.0 °F 88% 30.35 in 10.0 mi Calm Calm - N/A   Overcast
1:01 PM 19.4 °F - 15.8 °F 86% 30.24 in 10.0 mi Calm Calm - N/A   Overcast
1:25 PM 19.4 °F 14.3 °F 15.8 °F 86% 30.24 in 10.0 mi NNW 3.5 mph - N/A   Scattered Clouds
1:53 PM 19.0 °F - 15.1 °F 85% 30.36 in 10.0 mi Calm Calm - N/A   Scattered Clouds
2:53 PM 18.0 °F - 14.0 °F 84% 30.35 in 10.0 mi Calm Calm - N/A   Clear
3:53 PM 14.0 °F 5.1 °F 10.0 °F 84% 30.37 in 10.0 mi WSW 5.8 mph - N/A   Clear
5:53 PM 7.0 °F - 5.0 °F 92% 30.39 in 7.0 mi Calm Calm - N/A   Clear
6:53 PM -0.0 °F -13.0 °F -2.9 °F 88% 30.41 in 10.0 mi NW 6.9 mph - N/A   Clear
7:53 PM 1.0 °F - -2.0 °F 87% 30.40 in 9.0 mi Calm Calm - N/A   Clear
9:53 PM 5.0 °F - 1.9 °F 87% 30.40 in 10.0 mi Calm Calm - N/A   Clear
10:53 PM 7.0 °F - 3.9 °F 87% 30.39 in 10.0 mi Calm Calm - N/A   Partly Cloudy
11:53 PM 7.0 °F -1.7 °F 3.0 °F 84% 30.40 in 10.0 mi NW 4.6 mph - N/A   Mostly Cloudy